sat.trackr.live / text

‹ back to catalog

STARLINK-11116 [DTC]

NORAD 60045 · 2024-112H

PAYLOAD ACTIVE UNKNOWN

§ Identity

Operator
Country
US
Launch date
2024-06-08
Launch site
AFWTR
Launch vehicle
Mass (kg)
RCS (m²)

Purposes: comms

External: N2YO · Heavens-Above · Gunter

§ Orbital elements

Epoch: 2026-05-24T18:51:06.520032Z

Period
91.74 min
Inclination
53.1587°
Eccentricity
0.0001120
Mean motion
15.69708771 rev/d
Perigee alt
359.0 km
Apogee alt
360.5 km
Semi-major
6,737.9 km
B*
1.8422e-5
RAAN
251.0733°
Arg perigee
74.1437°
Mean anomaly
285.9704°
Rev number
11,293

§ Raw data

STARLINK-11116 [DTC]1 60045U 24112H   26144.78549213  .00001643  00000+0  18422-4 0  99952 60045  53.1587 251.0733 0001120  74.1437 285.9704 15.69708771112939

JSON: /api/v1/satellites/60045 · /tle

For live sub-satellite position, see the globe view (requires WebGL).

§ Visibility from observer

Set your observer location to see the next 7 days of passes ≥ 10°. The values pass through the URL so the page stays shareable.

No JS? Fill the form by hand. The geolocation button needs JavaScript.